Powrót do katalogu

STARLINK-35745

AktywnyŁącznośćVLEO
NORAD 66271·PAYLOAD·🇺🇸 United States

Wystrzelony Oct 31, 2025 z Vandenberg Space Force Base

Loading…

Następne Przeloty (najbliższe 24 godziny)

TLE

ŚwieżeSource: CelesTrak SupGP

Epoka: Sep 14, 2026, 15:12 UTC

1 66271C 25247G   26257.63381944 -.00054608  00000+0 -16136-2 0  2572
2 66271  53.1599  30.9490 0001210  74.9785 238.0199 15.34414536    14

Śledź STARLINK-35745 w czasie rzeczywistym z AllMySat

Download on the App Store